Weather History for Broomfield, CO

Change the Weather History Date:

Monday, March 11, 2013

  Actual Average Record
Temperature  
Mean Temperature 42 °F -  
Max Temperature 53 °F 50 °F 71 °F (1997)
Min Temperature 30 °F 28 °F 10 °F (1998)
Degree Days  
Heating Degree Days 24    
Moisture  
Dew Point 20 °F    
Average Humidity 52    
Maximum Humidity 100    
Minimum Humidity 22    
Precipitation  
Precipitation 0.00 in - - ()
Sea Level Pressure  
Sea Level Pressure 29.98 in    
Wind  
Wind Speed 18 mph (WNW)    
Max Wind Speed 33 mph    
Max Gust Speed 40 mph    
Visibility 8 miles    
Events Snow    
Averages and records for this station are not official NWS values.
T = Trace of Precipitation, MM = Missing Value Source: NWS Daily Summary

Daily Weather History Graph

Daily Weather History Graph

Search for Another Location

Airport:

Trip Planner

Search our weather history database for the weather conditions in past years. The results will help you decide how hot, cold, wet, or windy it might be!

Date:

Astronomy

Mar. 11, 2013 Rise Set
Actual Time 7:17 AM MDT 7:03 PM MDT
Civil Twilight 6:50 AM MDT 7:30 PM MDT
Nautical Twilight 6:19 AM MDT 8:01 PM MDT
Astronomical Twilight 5:47 AM MDT 8:33 PM MDT
Moon 6:53 AM MDT (3/11) 7:18 PM MDT (3/11)
Length of Visible Light 12h 39m
Length of Day
11h 45m
Waning Crescent, 0% of the Moon is Illuminated
Mar 11
Waning Crescent
Mar 11
New
Mar 19
First Quarter
Mar 27
Full
Apr 2
Last Quarter

Hourly Weather History & Observations

Time (MDT) Temp. Windchill Dew Point Humidity Pressure Visibility Wind Dir Wind Speed Gust Speed Precip Events Conditions
12:15 AM 39.2 °F 29.6 °F 15.8 °F 39% 29.99 in 10.0 mi WNW 19.6 mph - N/A   Clear
12:55 AM 41.0 °F 31.9 °F 15.8 °F 36% 29.99 in 10.0 mi West 19.6 mph - N/A   Clear
1:14 AM 39.2 °F 29.6 °F 17.6 °F 42% 29.98 in 10.0 mi WNW 19.6 mph 25.3 mph N/A   Clear
1:35 AM 41.0 °F 31.1 °F 17.6 °F 39% 29.97 in 10.0 mi WNW 23.0 mph 28.8 mph N/A   Clear
1:55 AM 41.0 °F 29.3 °F 17.6 °F 39% 29.97 in 10.0 mi West 33.4 mph 40.3 mph N/A   Clear
2:14 AM 41.0 °F 30.9 °F 17.6 °F 39% 29.97 in 10.0 mi WNW 24.2 mph 32.2 mph N/A   Clear
2:35 AM 41.0 °F 31.1 °F 17.6 °F 39% 29.96 in 10.0 mi West 23.0 mph 28.8 mph N/A   Clear
2:55 AM 41.0 °F 30.9 °F 15.8 °F 36% 29.95 in 10.0 mi West 24.2 mph - N/A   Clear
3:14 AM 41.0 °F 32.2 °F 15.8 °F 36% 29.95 in 10.0 mi West 18.4 mph - N/A   Clear
3:35 AM 41.0 °F 33.5 °F 17.6 °F 39% 29.95 in 10.0 mi West 13.8 mph - N/A   Clear
3:55 AM 41.0 °F 34.3 °F 15.8 °F 36% 29.94 in 10.0 mi West 11.5 mph - N/A   Scattered Clouds
4:15 AM 41.0 °F 32.8 °F 19.4 °F 42% 29.92 in 10.0 mi West 16.1 mph - N/A   Mostly Cloudy
4:35 AM 37.4 °F 27.8 °F 19.4 °F 48% 29.92 in 10.0 mi West 17.3 mph - N/A   Scattered Clouds
4:54 AM 37.4 °F 27.5 °F 17.6 °F 45% 29.92 in 10.0 mi West 18.4 mph - N/A   Clear
5:15 AM 39.2 °F 30.2 °F 17.6 °F 42% 29.93 in 10.0 mi West 17.3 mph 25.3 mph N/A   Clear
5:34 AM 37.4 °F 28.5 °F 17.6 °F 45% 29.93 in 10.0 mi West 15.0 mph - N/A   Clear
5:55 AM 37.4 °F 29.3 °F 17.6 °F 45% 29.93 in 10.0 mi West 12.7 mph - N/A   Clear
6:46 AM 44.6 °F 37.8 °F 10.4 °F 25% 29.96 in 40.0 mi West 15.0 mph - N/A   Mostly Cloudy
7:50 AM 41.0 °F 35.2 °F 10.4 °F 29% 29.96 in 60.0 mi WNW 9.2 mph - N/A   Mostly Cloudy
8:50 AM 39.2 °F 28.0 °F 15.8 °F 39% 29.97 in 60.0 mi West 26.5 mph 32.2 mph N/A   Mostly Cloudy
9:55 AM 42.8 °F 34.0 °F 15.8 °F 34% 29.99 in 60.0 mi West 20.7 mph 27.6 mph N/A   Mostly Cloudy
10:48 AM 44.6 °F 35.5 °F 15.8 °F 31% 29.98 in 60.0 mi West 25.3 mph - N/A   Mostly Cloudy
11:49 AM 46.4 °F 39.2 °F 17.6 °F 32% 29.97 in 60.0 mi West 18.4 mph - N/A   Mostly Cloudy
12:47 PM 46.4 °F 37.4 °F 15.8 °F 29% 29.94 in 60.0 mi West 28.8 mph 36.8 mph N/A   Mostly Cloudy
1:49 PM 48.2 °F - 17.6 °F 30% 29.93 in 60.0 mi WNW 19.6 mph 27.6 mph N/A   Mostly Cloudy
2:53 PM 50.0 °F - 17.6 °F 28% 29.92 in 60.0 mi WNW 28.8 mph 38.0 mph N/A   Mostly Cloudy
3:53 PM 50.0 °F - 17.6 °F 28% 29.92 in 60.0 mi NW 19.6 mph 40.3 mph N/A   Mostly Cloudy
4:53 PM 53.6 °F - 15.8 °F 22% 29.94 in 60.0 mi NNW 6.9 mph 18.4 mph N/A   Mostly Cloudy
5:16 PM 37.4 °F 26.9 °F 28.4 °F 70% 29.97 in 60.0 mi NE 20.7 mph 32.2 mph N/A   Mostly Cloudy
5:53 PM 35.6 °F 24.8 °F 28.4 °F 75% 29.98 in 50.0 mi NE 19.6 mph 28.8 mph N/A   Mostly Cloudy
6:05 PM 35.6 °F 25.5 °F 28.4 °F 75% 30.00 in 40.0 mi NNE 17.3 mph 23.0 mph N/A   Overcast
6:33 PM 35.6 °F 28.0 °F 28.4 °F 75% 30.04 in 20.0 mi NNE 10.4 mph - N/A Snow Light Snow
6:47 PM 33.8 °F 25.8 °F 28.4 °F 81% 30.04 in 4.0 mi NNE 10.4 mph - N/A Snow Light Snow
7:00 PM 33.8 °F 26.4 °F 28.4 °F 81% 30.04 in 1.0 mi NNE 9.2 mph - N/A Snow Light Snow
7:53 PM 32.0 °F 26.4 °F 30.2 °F 93% 30.07 in 1.5 mi ENE 5.8 mph - N/A Snow Light Snow
8:53 PM 30.2 °F 25.4 °F 30.2 °F 100% 30.09 in 1.0 mi Variable 4.6 mph - N/A Snow Light Snow
9:46 PM 30.2 °F 26.7 °F 30.2 °F 100% 30.10 in 2.0 mi ESE 3.5 mph - N/A Snow Light Snow
11:15 PM 32.0 °F - 32.0 °F 100% 30.14 in 2.0 mi Calm Calm - N/A Snow Light Snow
11:35 PM 32.0 °F - 32.0 °F 100% 30.13 in 4.0 mi Calm Calm - N/A Snow Light Snow
11:55 PM 30.2 °F - 30.2 °F 100% 30.14 in 3.0 mi Calm Calm - N/A Snow Light Snow